Previsão horária em Allschwil

Hoje, 22 Janeiro, Sexta-feira

Tempo Temperatura Precipitação Vento Pressão Humidade
00:00 +4°C° 1.7 mm 3 m/s 722 mmHg 92%
01:00 +4°C° 1.7 mm 4 m/s 722 mmHg 94%
02:00 +4°C° 0.7 mm 4 m/s 721 mmHg 92%
03:00 +4°C° 0.7 mm 4 m/s 721 mmHg 91%
04:00 +4°C° 0.7 mm 4 m/s 720 mmHg 89%
05:00 +5°C° 0.1 mm 4 m/s 720 mmHg 89%
06:00 +5°C° 0.1 mm 4 m/s 720 mmHg 89%
07:00 +5°C° 0.1 mm 4 m/s 720 mmHg 89%
08:00 +5°C° 0 mm 3 m/s 719 mmHg 88%
09:00 +7°C° 0 mm 3 m/s 719 mmHg 88%
10:00 +7°C° 0 mm 3 m/s 719 mmHg 87%
11:00 +8°C° 0 mm 2 m/s 719 mmHg 84%
12:00 +9°C° 0 mm 2 m/s 718 mmHg 82%
13:00 +10°C° 0 mm 2 m/s 718 mmHg 79%
14:00 +9°C° 0.2 mm 2 m/s 717 mmHg 84%
15:00 +9°C° 0.2 mm 1 m/s 717 mmHg 88%
16:00 +8°C° 0.2 mm 1 m/s 716 mmHg 92%
17:00 +7°C° 0.2 mm 1 m/s 716 mmHg 93%
18:00 +7°C° 0.2 mm 1 m/s 717 mmHg 93%
19:00 +6°C° 0.2 mm 0 m/s 717 mmHg 94%
20:00 +6°C° 1.3 mm 1 m/s 717 mmHg 95%
21:00 +6°C° 1.3 mm 1 m/s 718 mmHg 96%
22:00 +6°C° 1.3 mm 1 m/s 718 mmHg 97%
23:00 +4°C° 2.1 mm 2 m/s 719 mmHg 97%

Amanhã, 23 Janeiro, Sábado

Tempo Temperatura Precipitação Vento Pressão Humidade
00:00 +2°C° 2.1 mm 3 m/s 719 mmHg 97%
01:00 0°C° 2.1 mm 4 m/s 720 mmHg 96%
02:00 0°C° 0.9 mm 4 m/s 720 mmHg 97%
03:00 +1°C° 0.9 mm 3 m/s 721 mmHg 97%
04:00 +1°C° 0.9 mm 3 m/s 722 mmHg 97%
05:00 +1°C° 0.1 mm 3 m/s 722 mmHg 96%
06:00 +2°C° 0.1 mm 2 m/s 722 mmHg 95%
07:00 +2°C° 0.1 mm 2 m/s 722 mmHg 94%
08:00 +2°C° 0 mm 2 m/s 722 mmHg 93%
09:00 +3°C° 0 mm 1 m/s 721 mmHg 91%
10:00 +3°C° 0 mm 1 m/s 721 mmHg 90%
11:00 +4°C° 0 mm 1 m/s 721 mmHg 87%
12:00 +5°C° 0 mm 1 m/s 721 mmHg 85%
13:00 +6°C° 0 mm 1 m/s 720 mmHg 82%
14:00 +6°C° 0 mm 1 m/s 720 mmHg 84%
15:00 +5°C° 0 mm 1 m/s 719 mmHg 86%
16:00 +5°C° 0 mm 1 m/s 719 mmHg 87%
17:00 +4°C° 0 mm 1 m/s 719 mmHg 88%
18:00 +3°C° 0 mm 1 m/s 719 mmHg 90%
19:00 +2°C° 0 mm 1 m/s 720 mmHg 91%
20:00 +2°C° 0.2 mm 1 m/s 720 mmHg 92%
21:00 +2°C° 0.2 mm 1 m/s 720 mmHg 94%
22:00 +3°C° 0.2 mm 1 m/s 720 mmHg 96%
23:00 +2°C° 0.3 mm 2 m/s 720 mmHg 96%

Depois de amanhã, 24 Janeiro, Domingo

Tempo Temperatura Precipitação Vento Pressão Humidade
00:00 0°C° 0.3 mm 3 m/s 721 mmHg 96%
01:00 -1°C° 0.3 mm 4 m/s 721 mmHg 96%
02:00 -1°C° 0.3 mm 4 m/s 721 mmHg 96%
03:00 -1°C° 0.3 mm 4 m/s 721 mmHg 95%
04:00 -1°C° 0.3 mm 3 m/s 722 mmHg 94%
05:00 -1°C° 0.3 mm 3 m/s 722 mmHg 95%
06:00 -1°C° 0.3 mm 3 m/s 723 mmHg 95%
07:00 -1°C° 0.3 mm 3 m/s 724 mmHg 95%
08:00 -1°C° 0.1 mm 2 m/s 724 mmHg 93%
09:00 -1°C° 0.1 mm 2 m/s 724 mmHg 91%
10:00 +1°C° 0.1 mm 2 m/s 725 mmHg 89%
11:00 +1°C° 0 mm 2 m/s 724 mmHg 85%
12:00 +3°C° 0 mm 1 m/s 724 mmHg 80%
13:00 +4°C° 0 mm 1 m/s 724 mmHg 76%
14:00 +4°C° 0 mm 1 m/s 723 mmHg 78%
15:00 +3°C° 0 mm 1 m/s 723 mmHg 81%
16:00 +3°C° 0 mm 1 m/s 722 mmHg 84%
17:00 +3°C° 0.1 mm 1 m/s 723 mmHg 86%
18:00 +2°C° 0.1 mm 1 m/s 723 mmHg 89%
19:00 -1°C° 0.1 mm 2 m/s 723 mmHg 92%
20:00 -1°C° 0.3 mm 2 m/s 723 mmHg 93%
21:00 -1°C° 0.3 mm 2 m/s 723 mmHg 93%
22:00 -1°C° 0.3 mm 3 m/s 723 mmHg 94%
23:00 -1°C° 0.9 mm 3 m/s 723 mmHg 94%

25 Janeiro, Segunda-feira

Tempo Temperatura Precipitação Vento Pressão Humidade
00:00 -1°C° 0.9 mm 3 m/s 724 mmHg 95%
01:00 -1°C° 0.9 mm 3 m/s 724 mmHg 96%
02:00 -1°C° 0.5 mm 3 m/s 725 mmHg 95%
03:00 -2°C° 0.5 mm 3 m/s 725 mmHg 95%
04:00 -3°C° 0.5 mm 4 m/s 726 mmHg 94%
05:00 -3°C° 0.2 mm 4 m/s 726 mmHg 93%
06:00 -4°C° 0.2 mm 5 m/s 727 mmHg 93%
07:00 -4°C° 0.2 mm 5 m/s 728 mmHg 92%
08:00 -4°C° 0.2 mm 5 m/s 729 mmHg 91%
09:00 -4°C° 0.2 mm 5 m/s 730 mmHg 91%
10:00 -4°C° 0.2 mm 5 m/s 731 mmHg 90%
11:00 -2°C° 0.1 mm 5 m/s 731 mmHg 87%
12:00 -2°C° 0.1 mm 5 m/s 731 mmHg 84%
13:00 -1°C° 0.1 mm 5 m/s 732 mmHg 82%
14:00 -1°C° 0.3 mm 5 m/s 732 mmHg 84%
15:00 -1°C° 0.3 mm 5 m/s 732 mmHg 87%
16:00 -1°C° 0.3 mm 5 m/s 732 mmHg 90%
17:00 -1°C° 0.2 mm 5 m/s 732 mmHg 91%
18:00 -2°C° 0.2 mm 5 m/s 732 mmHg 92%
19:00 -2°C° 0.2 mm 5 m/s 733 mmHg 92%
20:00 -2°C° 0.3 mm 5 m/s 733 mmHg 93%
21:00 -2°C° 0.3 mm 5 m/s 734 mmHg 94%
22:00 -2°C° 0.3 mm 5 m/s 734 mmHg 94%
23:00 -2°C° 0.2 mm 4 m/s 734 mmHg 95%

26 Janeiro, Terça-feira

Tempo Temperatura Precipitação Vento Pressão Humidade
00:00 -2°C° 0.2 mm 4 m/s 735 mmHg 95%
01:00 -1°C° 0.2 mm 3 m/s 735 mmHg 95%
02:00 -1°C° 0.1 mm 3 m/s 735 mmHg 95%
03:00 -1°C° 0.1 mm 3 m/s 735 mmHg 94%
04:00 -1°C° 0.1 mm 2 m/s 735 mmHg 94%
05:00 -1°C° 0.2 mm 2 m/s 735 mmHg 95%
06:00 -1°C° 0.2 mm 2 m/s 736 mmHg 96%
07:00 -1°C° 0.2 mm 2 m/s 736 mmHg 97%
08:00 -1°C° 0.2 mm 2 m/s 736 mmHg 95%
09:00 +1°C° 0.2 mm 2 m/s 737 mmHg 94%
10:00 0°C° 0.2 mm 3 m/s 737 mmHg 92%
11:00 0°C° 0 mm 3 m/s 737 mmHg 92%
12:00 +1°C° 0 mm 3 m/s 737 mmHg 91%
13:00 +1°C° 0 mm 3 m/s 737 mmHg 91%
14:00 +2°C° 0 mm 2 m/s 736 mmHg 91%
15:00 +2°C° 0 mm 2 m/s 736 mmHg 92%
16:00 +2°C° 0 mm 2 m/s 736 mmHg 93%
17:00 +2°C° 0 mm 2 m/s 736 mmHg 93%
18:00 +2°C° 0 mm 1 m/s 736 mmHg 94%
19:00 +2°C° 0 mm 1 m/s 736 mmHg 94%
20:00 +2°C° 0.4 mm 1 m/s 735 mmHg 95%
21:00 +1°C° 0.4 mm 2 m/s 735 mmHg 96%
22:00 +1°C° 0.4 mm 2 m/s 735 mmHg 97%
23:00 +1°C° 0.3 mm 2 m/s 735 mmHg 97%

27 Janeiro, Quarta-feira

Tempo Temperatura Precipitação Vento Pressão Humidade
00:00 0°C° 0.3 mm 3 m/s 734 mmHg 97%
01:00 0°C° 0.3 mm 3 m/s 734 mmHg 97%
02:00 +1°C° 0.1 mm 3 m/s 733 mmHg 97%
03:00 +2°C° 0.1 mm 3 m/s 733 mmHg 97%
04:00 +1°C° 0.1 mm 4 m/s 732 mmHg 97%
05:00 +1°C° 0.1 mm 4 m/s 733 mmHg 97%
06:00 +3°C° 0.1 mm 4 m/s 733 mmHg 97%
07:00 +3°C° 0.1 mm 4 m/s 733 mmHg 97%
08:00 +3°C° 0.1 mm 4 m/s 734 mmHg 97%
09:00 +3°C° 0.1 mm 4 m/s 735 mmHg 97%
10:00 +3°C° 0.1 mm 4 m/s 735 mmHg 97%
11:00 +4°C° 0 mm 4 m/s 736 mmHg 96%
12:00 +4°C° 0 mm 4 m/s 736 mmHg 95%
13:00 +4°C° 0 mm 4 m/s 737 mmHg 94%
14:00 +4°C° 0.1 mm 4 m/s 737 mmHg 93%
15:00 +4°C° 0.1 mm 3 m/s 737 mmHg 93%
16:00 +4°C° 0.1 mm 3 m/s 737 mmHg 93%
17:00 +4°C° 0 mm 3 m/s 738 mmHg 93%
18:00 +4°C° 0 mm 2 m/s 738 mmHg 93%
19:00 +4°C° 0 mm 2 m/s 739 mmHg 92%
20:00 +4°C° 0 mm 2 m/s 739 mmHg 92%
21:00 +3°C° 0 mm 2 m/s 738 mmHg 91%
22:00 +3°C° 0 mm 2 m/s 738 mmHg 91%
23:00 +3°C° 0 mm 2 m/s 738 mmHg 91%
Mostrar mais

Necessitamos do seu Consentimento

A Meteoprog e os seus Fornecedores de Serviços podem armazenar e aceder a dados pessoais como cookies, identificadores do dispositivo ou outras tecnologias semelhantes existentes no seu dispositivo e processar estes dados para personalizar conteúdos e anúncios, assim como funcionalidades nas redes sociais e análise de tráfego.

  • Armazenar e/ou aceder a informações no seu dispositivo

    Os cookies, identificadores do dispositivo ou outras informações podem ser armazenados ou acedidos no seu dispositivo, para os fins acima indicados.

  • Anúncios e conteúdos personalizados, medição de anúncios e conteúdos, dados sobre o público-alvo e desenvolvimento de produtos

    Os anúncios e os conteúdos podem ser personalizados com base num perfil. Podem ser adicionados dados adicionais para uma maior personalização dos anúncios e dos conteúdos. A eficácia dos anúncios e dos conteúdos pode ser medida. Podem ser obtidas informações sobre o público que visualizou os anúncios e os conteúdos. Estes dados podem ser usados para desenvolver ou melhorar sistemas, softwares ou a experiência do utilizador.

Ao clicar em "Eu concordo”, permitirá o uso de cookies, identificadores do dispositivo e web beacons mencionados ou outras tecnologias semelhantes. As configurações do navegador do seu dispositivo podem ser alteradas.

Para certos fins, podem ser invocados interesses legítimos ao invés de consentimento. Pode ler mais informação sobre este assunto na nossa Política de Privacidade e Cookies.